FW7746 Weather Reports


time (UTC)temp
C
wind
direction
speed
KPH
gust
KPH
rain 1hr
cm
rain 24hr
cm
rain mn
cm
humidity
%
barometer
mb
20260906150104 7 196 0.0 0.0 0.00 0.61 0.46 90 1015.0
20260906145604 6 198 0.0 1.6 0.00 0.61 0.46 91 1015.0
20260906145104 6 219 0.0 3.2 0.00 0.61 0.46 92 1015.0
20260906144604 6 198 0.0 1.6 0.00 0.61 0.46 92 1014.9
20260906144104 6 186 0.0 0.0 0.00 0.61 0.46 92 1014.8
20260906143103 6 186 0.0 0.0 0.00 0.61 0.46 92 1014.8
20260906142604 6 186 0.0 0.0 0.00 0.61 0.46 92 1014.8
20260906142104 6 186 0.0 0.0 0.00 0.61 0.46 92 1014.7
20260906141604 6 186 0.0 0.0 0.00 0.61 0.46 92 1014.6
20260906140604 6 185 0.0 0.0 0.00 0.61 0.46 92 1014.6
20260906140104 6 180 0.0 1.6 0.00 0.61 0.46 92 1014.6
20260906135104 6 173 0.0 1.6 0.00 0.61 0.46 92 1014.7
20260906134604 5 193 0.0 3.2 0.00 0.61 0.46 92 1014.6
20260906134103 6 201 0.0 0.0 0.00 0.61 0.46 92 1014.6
20260906133604 6 201 0.0 0.0 0.00 0.61 0.46 92 1014.5
20260906133104 6 201 0.0 0.0 0.00 0.61 0.46 92 1014.4
20260906132604 6 201 0.0 0.0 0.00 0.61 0.46 92 1014.4
20260906132104 6 175 0.0 0.0 0.00 0.61 0.46 92 1014.3
20260906131604 6 174 0.0 0.0 0.00 0.61 0.46 92 1014.3
20260906130604 6 173 0.0 0.0 0.00 0.61 0.46 92 1014.1
20260906125604 6 173 0.0 0.0 0.00 0.61 0.46 92 1014.3
20260906124604 6 161 0.0 3.2 0.00 0.61 0.46 92 1014.4
20260906124104 6 176 0.0 4.8 0.00 0.61 0.46 92 1014.6
20260906123604 6 173 0.0 1.6 0.00 0.61 0.46 92 1014.7
20260906123104 6 175 0.0 0.0 0.00 0.61 0.46 92 1014.7
20260906122604 6 173 0.0 3.2 0.00 0.61 0.46 92 1014.7
20260906122104 6 188 0.0 1.6 0.00 0.61 0.46 93 1014.8
20260906121104 6 188 0.0 1.6 0.00 0.61 0.46 93 1014.7
20260906120103 6 207 0.0 3.2 0.00 0.61 0.46 93 1014.6
20260906115603 6 113 0.0 0.0 0.00 0.61 0.46 93 1014.6
20260906114603 6 113 0.0 0.0 0.03 0.61 0.46 93 1014.5
20260906114104 6 113 0.0 0.0 0.03 0.61 0.46 93 1014.3
20260906113604 6 113 0.0 0.0 0.03 0.61 0.46 92 1014.2
20260906113104 6 113 0.0 0.0 0.03 0.61 0.46 92 1014.4
20260906112103 7 112 0.0 0.0 0.03 0.61 0.46 92 1014.8
20260906111604 7 112 0.0 0.0 0.05 0.61 0.46 92 1014.8
20260906111104 7 112 0.0 0.0 0.08 0.61 0.46 92 1014.9
20260906110603 7 111 0.0 1.6 0.10 0.61 0.46 92 1015.0
20260906110104 7 53 0.0 4.8 0.13 0.61 0.46 92 1015.2
20260906105604 7 195 0.0 1.6 0.15 0.61 0.46 92 1015.2
20260906105104 7 218 0.0 3.2 0.13 0.58 0.43 92 1015.3
20260906104604 7 213 0.0 3.2 0.15 0.58 0.43 92 1015.3
20260906104103 7 216 0.0 1.6 0.15 0.58 0.43 93 1015.4
20260906103604 7 241 1.6 9.7 0.18 0.58 0.43 93 1015.4
20260906103104 7 188 0.0 1.6 0.20 0.58 0.43 93 1015.4
20260906102604 7 168 0.0 0.0 0.23 0.58 0.43 93 1015.4
20260906102103 7 180 0.0 3.2 0.23 0.58 0.43 93 1015.4
20260906101604 7 218 0.0 4.8 0.25 0.56 0.41 93 1015.4
20260906100604 7 145 0.0 1.6 0.23 0.51 0.36 93 1015.6
20260906100105 7 167 0.0 1.6 0.23 0.48 0.33 93 1015.6
20260906095604 7 160 0.0 1.6 0.23 0.46 0.30 93 1015.6
20260906095103 7 211 0.0 3.2 0.23 0.46 0.30 93 1015.6
20260906094104 7 214 0.0 0.0 0.23 0.43 0.28 93 1015.7
20260906093604 7 214 0.0 0.0 0.20 0.41 0.25 93 1015.7
20260906093104 8 214 0.0 1.6 0.18 0.38 0.23 93 1015.6
20260906092604 8 214 0.0 0.0 0.15 0.36 0.20 93 1015.7
20260906092103 8 214 0.0 0.0 0.15 0.36 0.20 93 1015.6
20260906091604 8 214 0.0 1.6 0.10 0.30 0.15 93 1015.6
20260906090604 8 160 0.0 0.0 0.10 0.28 0.13 93 1015.6
20260906090105 8 160 0.0 0.0 0.08 0.25 0.10 93 1015.6
20260906085604 8 160 0.0 0.0 0.05 0.23 0.08 93 1015.6
20260906085105 8 160 0.0 0.0 0.05 0.25 0.08 93 1015.5
20260906084603 8 160 0.0 0.0 0.08 0.25 0.08 93 1015.4
20260906084104 8 160 0.0 0.0 0.05 0.23 0.05 93 1015.4
20260906083603 8 160 0.0 0.0 0.05 0.23 0.05 93 1015.4
20260906083104 8 160 0.0 0.0 0.05 0.23 0.05 93 1015.4
20260906081604 8 160 0.0 0.0 0.05 0.23 0.05 92 1015.5
20260906080603 8 160 0.0 0.0 0.03 0.20 0.03 92 1015.5
20260906080104 8 160 0.0 0.0 0.03 0.20 0.03 92 1015.6
20260906075603 8 160 0.0 0.0 0.03 0.20 0.03 92 1015.6
20260906075104 8 160 0.0 0.0 0.03 0.20 0.03 91 1015.7
20260906074604 8 160 0.0 0.0 0.00 0.18 0.00 91 1015.8
20260906074104 8 160 0.0 1.6 0.00 0.18 0.00 91 1015.9
20260906073104 8 160 0.0 0.0 0.00 0.18 0.00 90 1015.6
20260906072604 8 160 0.0 1.6 0.00 0.18 0.00 90 1015.6
20260906072104 8 161 0.0 1.6 0.00 0.18 0.00 90 1015.4
20260906071604 8 188 0.0 0.0 0.00 0.18 0.00 90 1015.3
20260906071103 8 200 0.0 0.0 0.00 0.18 0.00 90 1015.3
20260906070604 8 202 0.0 0.0 0.00 0.18 0.00 90 1015.3
20260906070104 8 234 0.0 0.0 0.00 0.18 0.00 91 1015.4
20260906064604 8 237 0.0 0.0 0.00 0.18 0.18 91 1015.1
20260906064104 8 237 0.0 0.0 0.00 0.18 0.18 90 1014.9
20260906063604 8 237 0.0 0.0 0.00 0.18 0.18 91 1015.4
20260906063104 8 237 0.0 0.0 0.00 0.18 0.18 91 1015.1
20260906062605 8 237 0.0 0.0 0.00 0.18 0.18 91 1015.3
20260906062104 8 237 0.0 1.6 0.00 0.18 0.18 92 1015.4
20260906061604 8 236 0.0 0.0 0.00 0.18 0.18 92 1015.4
20260906061105 8 236 0.0 0.0 0.00 0.18 0.18 92 1015.4
20260906060605 9 236 0.0 0.0 0.00 0.18 0.18 92 1015.5
20260906060104 9 236 0.0 0.0 0.00 0.18 0.18 91 1015.7
20260906055604 9 236 0.0 0.0 0.00 0.18 0.18 92 1015.8
20260906055104 9 236 0.0 0.0 0.00 0.18 0.18 92 1015.8
20260906054604 9 236 0.0 0.0 0.00 0.18 0.18 91 1015.8
20260906054104 9 236 0.0 0.0 0.00 0.18 0.18 91 1016.0
20260906053604 9 236 0.0 0.0 0.00 0.18 0.18 91 1016.0
20260906052604 9 236 0.0 0.0 0.03 0.18 0.18 90 1016.2
20260906052104 9 236 0.0 0.0 0.03 0.18 0.18 89 1016.3
20260906051604 9 236 0.0 0.0 0.05 0.18 0.18 89 1016.3
20260906051104 9 236 0.0 0.0 0.15 0.18 0.18 89 1016.4
20260906050603 9 236 0.0 0.0 0.15 0.18 0.18 89 1016.4
20260906045104 8 236 0.0 0.0 0.15 0.18 0.18 88 1016.5
20260906044604 8 236 0.0 0.0 0.15 0.18 0.18 88 1016.5
20260906044104 9 236 0.0 0.0 0.15 0.18 0.18 88 1016.6
20260906043604 9 236 0.0 3.2 0.15 0.18 0.18 87 1016.6
20260906043104 9 231 1.6 4.8 0.13 0.15 0.15 86 1016.5
20260906042604 9 268 0.0 8.0 0.13 0.15 0.15 86 1016.7
20260906042104 10 275 0.0 1.6 0.13 0.15 0.15 84 1016.8
20260906041604 10 288 0.0 0.0 0.10 0.13 0.13 81 1016.9
20260906041104 11 304 0.0 4.8 0.00 0.03 0.03 75 1016.9
20260906040604 12 206 0.0 4.8 0.00 0.03 0.03 72 1016.8
20260906040105 12 165 0.0 4.8 0.00 0.03 0.03 70 1016.7
20260906035604 12 216 1.6 4.8 0.00 0.03 0.03 67 1016.5
20260906035104 13 328 0.0 3.2 0.00 0.03 0.03 66 1016.2
20260906034604 13 329 0.0 0.0 0.00 0.03 0.03 64 1016.0
20260906034105 13 329 0.0 3.2 0.00 0.03 0.03 64 1015.8
20260906033604 13 329 0.0 0.0 0.00 0.03 0.03 63 1015.9
20260906033104 13 329 0.0 0.0 0.00 0.03 0.03 63 1015.7
20260906032604 13 329 0.0 0.0 0.00 0.03 0.03 63 1015.7
20260906031605 13 329 0.0 1.6 0.00 0.03 0.03 63 1015.6
20260906030604 13 328 0.0 0.0 0.00 0.05 0.03 64 1015.7
20260906030104 13 328 0.0 0.0 0.00 0.05 0.03 64 1015.7
20260906025104 13 329 0.0 0.0 0.00 0.08 0.03 63 1015.5
20260906024604 13 329 0.0 12.9 0.00 0.10 0.03 63 1015.3
20260906024103 13 321 0.0 3.2 0.00 0.10 0.03 61 1015.2
20260906023104 13 329 0.0 4.8 0.00 0.18 0.03 59 1015.1
20260906022604 13 267 0.0 3.2 0.00 0.20 0.03 59 1015.1
20260906022104 14 283 0.0 4.8 0.00 0.20 0.03 59 1015.2
20260906021104 14 284 1.6 4.8 0.00 0.20 0.03 57 1015.1
20260906020605 14 306 1.6 4.8 0.00 0.20 0.03 57 1015.0
20260906020105 14 241 0.0 4.8 0.00 0.20 0.03 58 1015.0
20260906015604 14 331 3.2 8.0 0.00 0.20 0.03 57 1014.9
20260906015104 15 298 1.6 4.8 0.00 0.20 0.03 57 1014.8
20260906014604 15 328 3.2 14.5 0.00 0.20 0.03 56 1014.9
20260906014104 15 338 1.6 16.1 0.00 0.20 0.03 57 1014.9
20260906013604 15 325 3.2 9.7 0.00 0.20 0.03 56 1015.0
20260906013105 15 326 1.6 19.3 0.00 0.20 0.03 56 1014.8
20260906012604 15 302 1.6 4.8 0.00 0.20 0.03 54 1014.8
20260906012103 15 302 1.6 4.8 0.00 0.20 0.03 54 1014.9
20260906011604 15 321 0.0 4.8 0.00 0.20 0.03 54 1014.8
20260906010604 15 324 3.2 12.9 0.00 0.20 0.03 53 1014.9
20260906010104 15 328 3.2 12.9 0.00 0.20 0.03 53 1014.8
20260906005604 16 321 1.6 8.0 0.00 0.20 0.03 53 1014.8
20260906004604 16 328 3.2 8.0 0.00 0.20 0.03 54 1014.7
20260906003604 16 326 6.4 12.9 0.00 0.20 0.03 53 1014.6
20260906003104 16 337 1.6 4.8 0.00 0.20 0.03 55 1014.9
20260906002604 16 328 3.2 12.9 0.00 0.20 0.03 55 1014.9
20260906002104 15 311 1.6 9.7 0.00 0.20 0.03 54 1014.9
20260906001604 15 322 4.8 12.9 0.00 0.20 0.03 54 1014.9
20260906001104 16 330 3.2 8.0 0.00 0.20 0.03 54 1014.9
20260906000604 16 326 3.2 4.8 0.00 0.20 0.03 54 1014.9
20260905235604 16 327 3.2 4.8 0.00 0.20 0.03 53 1014.9
20260905235104 16 328 3.2 4.8 0.00 0.20 0.03 52 1014.9
20260905234605 16 328 6.4 16.1 0.00 0.20 0.03 51 1014.9
20260905234104 16 320 1.6 4.8 0.00 0.20 0.03 51 1014.8
20260905233604 16 318 1.6 4.8 0.00 0.20 0.03 50 1014.7
20260905233104 17 273 1.6 4.8 0.00 0.20 0.03 48 1014.8
20260905232604 17 340 0.0 0.0 0.00 0.20 0.03 44 1014.7
20260905232104 18 350 0.0 0.0 0.00 0.20 0.03 43 1014.6
20260905231604 18 350 0.0 0.0 0.00 0.20 0.03 42 1014.6
20260905231104 18 344 0.0 0.0 0.00 0.20 0.03 40 1014.6
20260905230105 18 334 0.0 0.0 0.00 0.20 0.03 40 1014.7
20260905225604 18 334 0.0 0.0 0.00 0.20 0.03 42 1014.7
20260905224604 18 121 0.0 0.0 0.00 0.20 0.03 41 1014.9
20260905224104 19 123 0.0 1.6 0.00 0.20 0.03 40 1014.9
20260905223605 18 139 0.0 1.6 0.00 0.20 0.03 40 1015.0
20260905223104 18 140 0.0 0.0 0.00 0.20 0.03 41 1015.0
20260905222604 18 140 0.0 0.0 0.00 0.20 0.03 39 1015.1
20260905222105 20 74 3.2 11.3 0.00 0.20 0.03 38 1015.1
20260905221604 19 93 1.6 4.8 0.00 0.20 0.03 40 1015.2
20260905221104 18 174 0.0 3.2 0.00 0.20 0.03 42 1015.3
20260905220604 19 167 0.0 0.0 0.00 0.23 0.03 39 1015.4
20260905220105 20 82 0.0 3.2 0.00 0.25 0.03 41 1015.4
20260905215604 19 128 0.0 3.2 0.00 0.30 0.03 41 1015.3
20260905215104 18 138 0.0 0.0 0.00 0.30 0.03 43 1015.3
20260905214104 19 142 0.0 4.8 0.00 0.33 0.03 41 1015.3
20260905213604 18 84 0.0 4.8 0.00 0.33 0.03 44 1015.3
20260905213104 18 59 0.0 0.0 0.00 0.33 0.03 44 1015.4
20260905212604 19 59 0.0 0.0 0.00 0.33 0.03 44 1015.4
20260905212104 18 58 0.0 8.0 0.00 0.33 0.03 45 1015.5
20260905211604 18 68 0.0 3.2 0.00 0.33 0.03 45 1015.5
20260905211104 18 67 1.6 4.8 0.00 0.33 0.03 46 1015.6
20260905210604 17 83 0.0 3.2 0.00 0.33 0.03 49 1015.7
20260905205604 16 96 0.0 0.0 0.00 0.33 0.03 51 1015.9
20260905205104 17 96 1.6 4.8 0.00 0.33 0.03 46 1015.9
20260905204604 17 149 0.0 0.0 0.00 0.33 0.03 48 1015.9
20260905203604 18 156 0.0 0.0 0.00 0.33 0.03 45 1016.1
20260905203104 17 96 0.0 4.8 0.00 0.33 0.03 46 1016.1
20260905202604 18 108 1.6 4.8 0.00 0.33 0.03 44 1016.2
20260905201604 17 350 0.0 4.8 0.00 0.33 0.03 49 1016.2
20260905201104 17 226 1.6 8.0 0.00 0.33 0.03 46 1016.2
20260905200604 17 117 0.0 4.8 0.00 0.33 0.03 45 1016.2
20260905195604 17 89 0.0 4.8 0.00 0.33 0.03 48 1016.2
20260905195104 17 101 0.0 4.8 0.00 0.33 0.03 48 1016.4
20260905194105 17 137 0.0 0.0 0.00 0.33 0.03 47 1016.5
20260905193605 17 122 0.0 3.2 0.00 0.33 0.03 49 1016.5
20260905193104 17 126 0.0 4.8 0.00 0.33 0.03 49 1016.6
20260905192604 17 211 0.0 4.8 0.00 0.33 0.03 49 1016.5
20260905190605 15 216 0.0 3.2 0.00 0.33 0.03 58 1016.9
20260905190104 15 216 0.0 1.6 0.00 0.33 0.03 57 1016.9
20260905185605 15 218 0.0 0.0 0.00 0.33 0.03 55 1016.9
20260905185104 15 221 0.0 0.0 0.00 0.33 0.03 56 1016.9
20260905183604 15 254 0.0 0.0 0.00 0.33 0.03 61 1017.2
20260905183104 15 254 0.0 0.0 0.00 0.33 0.03 61 1017.1
20260905182605 14 256 0.0 4.8 0.00 0.33 0.03 64 1017.2
20260905182104 15 196 0.0 3.2 0.00 0.33 0.03 63 1017.2
20260905181605 14 207 0.0 0.0 0.00 0.33 0.03 64 1017.4
20260905181104 14 209 0.0 3.2 0.00 0.33 0.03 63 1017.4
20260905180604 14 211 1.6 4.8 0.00 0.33 0.03 62 1017.5
20260905180104 14 143 0.0 3.2 0.00 0.33 0.03 64 1017.6
20260905175605 13 144 0.0 0.0 0.00 0.33 0.03 65 1017.6
20260905175104 13 140 0.0 0.0 0.00 0.33 0.03 66 1017.7
20260905174604 13 128 0.0 3.2 0.00 0.33 0.03 67 1017.7
20260905174104 13 160 0.0 1.6 0.00 0.33 0.03 69 1017.8
20260905173604 12 179 0.0 3.2 0.00 0.33 0.03 69 1017.8
20260905173105 12 177 1.6 4.8 0.00 0.33 0.03 70 1017.8
20260905172604 12 135 1.6 4.8 0.00 0.33 0.03 70 1017.8
20260905171604 12 164 0.0 0.0 0.00 0.33 0.03 74 1017.9
20260905170604 11 164 0.0 1.6 0.00 0.33 0.03 78 1017.9
20260905170104 11 165 0.0 0.0 0.00 0.33 0.03 80 1017.9
20260905165604 10 165 0.0 0.0 0.00 0.33 0.03 82 1017.8
20260905165104 10 165 0.0 1.6 0.00 0.33 0.03 84 1017.8
20260905164604 9 204 0.0 1.6 0.00 0.33 0.03 86 1017.8
20260905163604 8 207 0.0 0.0 0.00 0.33 0.03 88 1017.9
20260905163104 8 207 0.0 0.0 0.00 0.33 0.03 89 1018.0
20260905162605 8 207 0.0 0.0 0.00 0.33 0.03 90 1018.0
20260905161604 7 207 0.0 0.0 0.00 0.33 0.03 91 1017.9
20260905160104 7 213 0.0 0.0 0.00 0.33 0.03 91 1018.1
20260905155605 7 213 0.0 0.0 0.00 0.33 0.03 91 1018.0
20260905155103 7 215 0.0 0.0 0.00 0.33 0.03 91 1017.9
20260905154603 7 215 0.0 0.0 0.00 0.33 0.03 91 1018.0
20260905154103 6 215 0.0 0.0 0.00 0.33 0.03 92 1018.0
20260905153603 6 215 0.0 0.0 0.00 0.33 0.03 92 1018.0
20260905153103 6 215 0.0 0.0 0.00 0.33 0.03 92 1017.9
20260905152603 6 215 0.0 0.0 0.00 0.33 0.03 92 1018.1
20260905151603 6 215 0.0 0.0 0.00 0.33 0.03 92 1018.2
20260905151103 6 219 0.0 0.0 0.00 0.33 0.03 92 1018.2